Regional Weather Roundup
Issued by NWS Wakefield, VA

Home | Current Version | Previous Version | Graphics & Text | Print | Product List | Glossary On
Versions: 1 2 3 4 5 6 7 8 9 10 11 12 13 14 15 16 17 18 19 20 21 22 23 24 25 26 27 28 29 30 31 32 33 34 35 36 37 38 39 40 41 42 43 44 45 46 47 48 49
000
ASUS41 KAKQ 181314
RWRAKQ

REGIONAL WEATHER ROUNDUP
NATIONAL WEATHER SERVICE WAKEFIELD VA
900 AM EDT SAT APR 18 2015

Note: "fair" indicates few or no clouds below 12,000 feet with no
significant weather and/or obstructions to visibility. * = Denotes
station may not report precipitation (e.g., rain,snow,etc.),
thunder or fog.

VAZ042-051-052>054-056-181400-
NORTHERN VIRGINIA

CITY           SKY/WX    TMP DP  RH WIND       PRES   REMARKS
WASH NATIONAL  MOSUNNY   69  54  58 CALM      30.04S
DULLES         MOSUNNY   65  53  65 N5        30.04S
FORT BELVOIR   SUNNY     68  53  56 VRB2      30.04S
QUANTICO       SUNNY     66  55  67 E6        30.04F
FREDERICKSBRG* SUNNY     67  57  71 N5        30.03S
STAFFORD*      SUNNY     67  51  57 N7        30.08S
WARRENTON      SUNNY     64  62  94 CALM      30.04S
CULPEPER*      SUNNY     66  57  72 N5        30.05S
MANASSAS*      SUNNY     66  55  68 NE3       30.04F
LEESBURG*      SUNNY     68  54  60 N5        30.05F
WINCHESTER     SUNNY     63  52  67 SE3       30.06S
FRONT ROYAL*   FAIR      61  54  77 CALM      30.06S
LURAY*         FAIR      61  59  94 CALM      30.06F
$$

VAZ048-049-060>072-079>083-181400-
CENTRAL AND SOUTH CENTRAL VIRGINIA

CITY           SKY/WX    TMP DP  RH WIND       PRES   REMARKS
RICHMOND       PTSUNNY   68  58  70 NE6       30.01F
CHESTERFIELD*  NOT AVBL
PETERSBURG*    MOSUNNY   69  58  68 NE8       30.02F
HANOVER        MOSUNNY   66  59  78 VRB5      30.03F
TAPPAHANNOCK*  MOSUNNY   67  53  59 CALM      30.03F
QUINTON*       FAIR      66  58  75 NE3       30.01F
CHARLOTTSVILLE SUNNY     63  58  83 CALM      30.04S
GORDONSVILLE*  FAIR      65  56  73 E3        30.04R
ORANGE*        SUNNY     66  55  68 N9        30.05S
LOUISA*        MOSUNNY   66  57  72 NE7       30.03S
BUMPASS*       FAIR      65  55  72 N7        30.03F
FARMVILLE*     MOSUNNY   66  64  91 NE7       30.02S
CREWE*         FAIR      67  58  72 NE8       30.02S
FORT PICKETT*  FAIR      66  59  77 NE8       30.02S
CHASE CITY*    FAIR      69  64  83 NE5       30.02S
CLARKSVILLE*   FAIR      66  61  82 N3        30.01F
SOUTH HILL*    MOSUNNY   66  62  86 N3        30.07S
LAWRENCEVILLE* FAIR      67  62  84 N6        30.01R
EMPORIA*       MOSUNNY   64  63  94 NW6       30.02S
$$

VAZ088>098-181400-
SOUTHEAST VIRGINIA

CITY           SKY/WX    TMP DP  RH WIND       PRES   REMARKS
NORFOLK        PTSUNNY   69  62  78 N8        29.99F
VIRGINIA BEACH PTSUNNY   71  64  78 VRB7      29.98F
NORFOLK NAVAL  CLOUDY    72  62  71 N8        30.00F
WEST POINT*    CLOUDY    69  56  62 NE6       30.02F
SALUDA*        FAIR      64  59  83 CALM      30.00F
NEWPORT NEWS   CLOUDY    72  62  71 N8        30.00F
LANGLEY AFB    CLOUDY    67  62  83 N6        29.98F
FORT EUSTIS    CLOUDY    68  68 100 NE7       29.98F
WILLIAMSBURG*  CLOUDY    66  64  94 NE5       30.01F
HR EXEC AP*    FAIR      66  64  94 NW3       30.01S
FRANKLIN*      MOSUNNY  N/A N/A N/A CALM      30.00F
WAKEFIELD      PTSUNNY   67  61  81 N5        30.00F
$$

VAZ020-022-025-037-045-181400-
WEST CENTRAL AND SOUTHWEST VIRGINIA

CITY           SKY/WX    TMP DP  RH WIND       PRES   REMARKS
STAUNTON*      SUNNY     58  55  89 CALM      30.08F
WAYNESBORO*    FAIR      60  54  82 CALM      30.07S
HOT SPRINGS VA SUNNY     59  50  73 E3        30.11S
LYNCHBURG      MOSUNNY   66  56  70 N7        30.06R
DANVILLE       PTSUNNY   68  59  73 NE9       30.02S
SOUTH BOSTON*  FAIR      66  61  84 NE5       30.02F
MARTINSVILLE   CLOUDY    66  61  82 NE5       30.06S
ROANOKE        SUNNY     65  54  67 N7        30.08R
BLACKSBURG     SUNNY     62  53  73 CALM      30.11S
DUBLIN*        SUNNY     62  57  86 CALM      30.09F
MARION*        SUNNY     63  56  79 CALM      30.11S
HILLSVILLE*    SUNNY     59  56  89 N3        30.09S
RICHLANDS*     FAIR      62  51  67 CALM      30.09S
WISE*            N/A     64  52  63 CALM      30.11R
ABINGDON*      SUNNY     63  60  90 E5        30.08R
$$

MDZ021>025-VAZ099-100-181400-
SOUTHERN MARYLAND AND THE DELMARVA PENINSULA

CITY           SKY/WX    TMP DP  RH WIND       PRES   REMARKS
PATUXENT RIVER PTSUNNY   65  57  75 NW6       30.02S
BAY BRIDGE APT NOT AVBL
LEONARDTOWN      N/A     64  52  63 N5        30.04S
DOVER          SUNNY     65  56  73 NE7       29.99S
GEORGETOWN     SUNNY     64  59  83 E10       30.02S
EASTON         MOSUNNY   64  64 100 NE6       30.05F
CAMBRIDGE      MOSUNNY   61  59  94 N5        30.02S
SALISBURY      MOSUNNY   61  59  93 N5        30.01S FOG
OCEAN CITY     MOSUNNY   64  61  90 N9        30.01S
WALLOPS ISLAND MOSUNNY   66  62  87 NW5       30.00F
ACCOMACK*      MOSUNNY   68  59  73 N7        30.00F
$$

NCZ012>017-030>032-181400-
NORTH CENTRAL AND EASTERN NORTH CAROLINA

CITY           SKY/WX    TMP DP  RH WIND       PRES   REMARKS
ROANOKE RAPIDS PTSUNNY   66  63  88 CALM      30.00F
RALEIGH        PTSUNNY   66  64  93 W3        30.00F
ELIZABETH CITY MOSUNNY   71  64  78 NW6       29.99F
AHOSKIE*       MOSUNNY   66  64  91 CALM      30.00F
EDENTON*       MOSUNNY   67  64  91 NW3       29.99F
CURRITUCK*     MOSUNNY   69  64  83 W5        30.00S
KILL DEVIL HLS PTSUNNY   66  65  96 W3        29.98S
MANTEO         PTSUNNY   68  65  89 NW6       30.00S
CAPE HATTERAS  CLOUDY    64  62  93 CALM      29.99F
TARBORO*       FAIR      64  63  97 CALM      30.00F
GOLDSBORO      CLOUDY    68  65  90 CALM      29.97F
WASHINGTON       N/A     65  64  95 CALM      30.00S
GREENVILLE     CLOUDY    64  64 100 CALM      30.00F
NEW BERN       CLOUDY    69  65  86 CALM      30.00F
WILMINGTON     LGT RAIN  67  66  97 N7        30.00R FOG
$$

VAZ048-181400-
ELSEWHERE

CITY           SKY/WX    TMP DP  RH WIND       PRES   REMARKS
HARRISBURG PA  MOSUNNY   60  49  66 NW6       30.04S
BALTIMORE      MOSUNNY   66  51  58 NE7       30.03S
ANNAPOLIS      SUNNY     65  50  58 VRB6      30.03S
ANDREWS AFB    SUNNY     66  53  61 N6        30.03S
PHILADELPHIA   MOSUNNY   65  51  60 CALM      30.03S
HENDERSON NC   PTSUNNY   63  62  96 N5        30.01F
GREENSBORO     PTSUNNY   64  61  88 NE7       30.01F
ROCKY MOUNT    CLOUDY    66  65  96 CALM      29.99F
$$

VAZ100-181400-
MARINE

STATION/POSITION TIME  TEMP    WIND        PRES    WAVE   SWELL
                       AIR SEA DIR/SP/G            HT/PER HT/PER
                 (UTC) (F)     (DEG/KT/KT) (MB)    (FT/S) (FT/S)
CAPE MAY NJ      1200   56 54   CALM  /  1 1016.0R
LEWES DE         1200   55 50   10/  2/  3 1016.1R
15NM E FENWICK I 1250   51 48              1015.8R   3/11
OCEAN-CITY-INLET 1200   58 48   10/  3/  3 1015.8R
WACHAPREAGUE VA  1200   64 60  300/  2/  4 1016.1R
THOMAS POINT MD  1300   61 54   10/  8/  9 1017.3F
GOOSES REEF MD   1300   58 55  360/  6/  6   N/A     1/ 2
COVE POINT MD    1200   62     350/ 10/ 11 1016.5R
SOLOMONS ISLAND  1200      55                N/A
BISHOPS HEAD MD  1200   62 63  340/  4/  6 1016.1R
PINEY POINT MD   1200          340/  6/  6   N/A
CAMBRIDGE MD     1200   61 57  320/  5/  6 1016.6R
LEWISETTA VA     1200   63 59              1016.3R
RAPPAHANNOCK LGT 1200          350/ 12/ 13 1016.7R
STINGRAY PT      1300   58 56   10/  8/  8 1017.8F
YORK RVR RNG VA  1200   62      10/  8/  8 1015.6R
YORKTOWN VA      1200   61 58  300/  5/  6 1016.1R
DOMINION TERM VA 1200   63     310/  4/  5 1016.0R
KIPTOPEKE VA     1200      60  310/  2/  2   N/A
CHES BAY BRIDGE  1200   62 54  270/  4/  5 1015.5R
CAPE HENRY VA    1200   64     260/  3/  5 1014.6R
CHESAPEAKE LGHT  1200   63     280/  9/  9 1016.3R
WILLOUBY STN VA  1200   63     280/  4/  4 1016.6R
S CRANEY ISL VA  1200           CALM  /  1 1015.8R
CAPE HENRY BUOY  1228      54                N/A     3/ 7   2/11
1ST LANDING BUOY 1300   58     280/  4/  4 1015.3F   2/ 5
OFFSHORE WE BUOY 1211      48                N/A     4/ 7   3/ 7
64NM E OF VA BCH 1250   58 54  290/  6/  6 1015.1S   3/ 8   3/ 8
DUCK PIER NC     1200   66 53  280/  7/  8 1014.7S
44056 DUCK FRF   1211      54                N/A     3/ 8   2/11
OREGON INLET NC  1200   64 60     CALM     1015.8R
HATTERAS NC      1200   66 67  130/  2/  2 1015.3R
DIAMOND SHLS NC  1250   70 75   10/  8/ 10 1015.3F   5/ 8   5/ 8
CAPE LOOKOUT NC  1300   67      30/  6/  8 1015.3R
$$


USA.gov is the U.S. government's official web portal to all federal, state and local government web resources and services.